Regional Weather Roundup
Issued by NWS

Home | Current Version | Previous Version | Text Only | Print | Product List | Glossary Off
Versions: 1 2 3 4 5 6 7 8 9 10 11 12 13 14 15 16 17 18 19 20 21 22 23 24 25 26 27 28 29 30 31 32 33 34 35 36 37 38 39 40 41 42 43 44 45 46 47 48 49 50

000
ASUS43 KOAX 250910
RWRNE

WEATHER ROUNDUP FOR NEBRASKA
NATIONAL WEATHER SERVICE OMAHA NE
400 AM CDT SUN JUN 25 2017

NOTES: SATELLITE DATA IS BEING USED TO AUGMENT CLOUD COVER ABOVE
       12000 FEET.
       "FAIR" INDICATES FEW OR NO CLOUDS BELOW 12,000 FEET WITH NO
       SIGNIFICANT WEATHER AND/OR OBSTRUCTIONS TO VISIBILITY.

  * THESE STATIONS DO NOT REPORT WEATHER SUCH AS RAIN...SNOW OR FOG.

NEZ001>004-019>022-054>056-251000-
NEBRASKA PANHANDLE

CITY           SKY/WX    TMP DP  RH WIND       PRES   REMARKS
SCOTTSBLUFF    CLOUDY    59  35  40 E16       30.37R
ALLIANCE       CLOUDY    55  36  48 E6        30.37S
CHADRON        CLOUDY    54  36  50 N12       30.35F
GORDON         FAIR      50  38  65 CALM      30.38R
KIMBALL        CLOUDY    54  47  78 E3        30.37S
SIDNEY         CLOUDY    53  45  74 NE5       30.36R
$$

NEZ057>060-069>072-079>082-251000-
SOUTHWEST NEBRASKA

CITY           SKY/WX    TMP DP  RH WIND       PRES   REMARKS
NORTH PLATTE   CLOUDY    55  38  52 NE12      30.33S
IMPERIAL       PTCLDY    52  45  77 CALM      30.33R
LEXINGTON      PTCLDY    52  41  66 NE7       30.31S
MCCOOK         PTCLDY    51  48  89 W6        30.30R
OGALLALA       CLOUDY    53  39  60 NE3       30.34F
$$

NEZ005>010-023>029-035>040-094-251000-
NORTH CENTRAL NEBRASKA

CITY           SKY/WX    TMP DP  RH WIND       PRES   REMARKS
VALENTINE      CLOUDY    46  34  62 W6        30.35S
AINSWORTH      CLOUDY    47  40  77 SW5       30.35S
BROKEN BOW     CLOUDY    54  41  61 N5        30.34R
O`NEILL        CLOUDY    47  42  80 W3        30.33S
ORD            PTCLDY    48  39  71 W3        30.33R
THEDFORD       CLOUDY    49  38  66 CALM      30.37S
$$

NEZ041-046>049-061>064-073>077-083>087-251000-
SOUTH CENTRAL NEBRASKA

CITY           SKY/WX    TMP DP  RH WIND       PRES   REMARKS
GRAND ISLAND   CLEAR     49  43  80 N8        30.31R
AURORA         PTCLDY    50  43  77 N9        30.30R
HASTINGS       CLEAR     51  42  71 N7        30.31R
HEBRON         PTCLDY    53  48  83 CALM      30.27S
HOLDREGE       CLEAR     51  42  70 NW3       30.30R
KEARNEY *      PTCLDY    54  39  58 N7        30.32R
YORK           CLEAR     48  43  81 N9        30.30R
$$

NEZ011>018-030>034-042>045-251000-
NORTHEAST NEBRASKA

CITY           SKY/WX    TMP DP  RH WIND       PRES   REMARKS
NORFOLK        PTCLDY    47  40  76 W6        30.30R
ALBION         MOCLDY    50  41  71 N5        30.31F
BLAIR          CLEAR     56  42  57 N8        30.25S
FREMONT        CLEAR     50  43  77 NW3       30.28R
TEKAMAH        PTCLDY    52  41  66 W8        30.26R
WAYNE          PTCLDY    45  40  85 CALM      30.28S
$$

NEZ050>053-065>068-078-088>093-251000-
SOUTHEAST NEBRASKA

CITY           SKY/WX    TMP DP  RH WIND       PRES   REMARKS
LINCOLN        CLEAR     53  43  68 N5        30.28R
OMAHA EPPLEY   CLEAR     55  44  66 N3        30.25R
BEATRICE       PTCLDY    51  47  85 N3        30.26R
FALLS CITY     CLEAR     54  48  80 NW6       30.22R
NEBRASKA CITY  CLEAR     57  46  64 N5        30.26R
PLATTSMOUTH    CLEAR     56  44  63 N6        30.25R
$$

NEZ044-045-051>053-067-251000-
OMAHA AREA

CITY           SKY/WX    TMP DP  RH WIND       PRES   REMARKS
OMAHA EPPLEY   CLEAR     55  44  66 N3        30.25R
BLAIR          CLEAR     56  42  57 N8        30.25S
FREMONT        CLEAR     50  43  77 NW3       30.28R
MILLARD        CLEAR     57  44  62 NW6       30.26R
OFFUTT AFB     CLEAR     53  44  71 CALM      30.25R
PLATTSMOUTH    CLEAR     56  44  63 N6        30.25R
WAHOO          FAIR      54  40  60 NW7       30.27S
$$



USA.gov is the U.S. government's official web portal to all federal, state and local government web resources and services.